Wind_Speed
2 2 4 6 8 11 14 16 17 19 22 22 23 23 24 24 25 24 25 26 26 26 26 26 25 24 25 25 25 26 26 25 25 25 25 25 25 25
2 2 3 4 7 9 12 14 16 17 19 22 22 23 23 24 25 25 25 26 27 28 28 27 27 26 26 26 27 27 27 27 26 27 27 27 28 28
4 3 4 5 6 8 10 13 15 17 17 19 20 21 22 23 24 26 26 26 27 28 28 28 28 28 28 28 28 29 29 29 28 28 28 28 29 29
5 4 5 6 7 8 10 12 14 15 16 17 18 20 21 22 24 25 25 26 26 27 28 28 28 28 29 29 29 30 29 29 29 29 29 29 30 31
7 6 6 7 8 9 10 12 13 14 15 16 17 19 20 21 22 23 24 26 26 27 28 28 28 28 28 28 28 29 29 29 29 30 30 30 31 32
9 8 7 8 9 10 12 13 13 14 15 16 17 17 18 20 21 22 22 24 25 25 26 27 28 28 28 27 28 28 29 29 30 30 31 31 31 32
11 10 9 9 10 12 13 14 14 15 16 16 17 17 18 19 20 20 22 23 24 24 25 27 27 28 28 28 29 29 30 31 31 31 32 32 33 33
13 13 13 12 12 12 13 14 15 16 17 17 17 18 18 18 19 20 21 22 23 24 24 25 26 27 28 29 29 29 31 31 32 32 32 32 33 33
16 16 15 15 15 15 15 16 16 17 18 19 19 19 19 19 20 21 21 22 22 23 23 24 25 26 27 27 28 28 29 29 29 30 31 31 32 32
20 19 18 18 18 17 17 17 18 18 19 18 19 19 20 20 20 21 22 22 23 22 23 23 23 24 25 26 26 26 26 27 28 28 29 29 30 32
23 22 21 21 20 20 20 20 19 20 20 20 20 19 19 19 19 20 21 23 23 23 23 23 23 24 24 25 26 25 25 26 27 27 28 29 30 31
26 25 25 24 24 23 23 22 22 21 21 21 21 21 21 20 20 20 20 21 22 23 23 23 23 24 23 24 24 25 25 25 26 27 28 29 30 31
30 29 28 27 27 26 26 25 24 24 23 23 22 22 22 22 22 21 21 21 22 23 23 23 23 24 24 24 24 24 24 24 25 26 27 28 29 30
34 33 31 31 30 29 29 28 27 27 26 25 25 24 24 24 24 23 23 23 23 23 23 24 24 24 25 25 25 25 25 26 26 27 28 28 29 30
37 36 35 34 33 32 31 31 30 29 29 28 28 27 26 26 25 25 25 24 24 24 24 24 25 25 25 25 26 26 26 27 28 28 29 30 31 32
40 40 39 37 36 35 34 33 33 32 31 30 29 29 28 27 26 26 25 25 25 25 25 25 25 25 25 26 26 26 27 28 29 30 30 31 32 33
43 43 42 40 38 37 37 36 35 34 33 32 32 31 30 29 28 27 26 26 26 26 26 26 26 26 26 26 27 27 28 28 29 30 31 31 32 32
47 45 44 42 41 40 39 38 37 36 35 35 34 33 32 31 30 29 28 28 27 27 26 26 26 27 27 27 28 28 29 29 30 30 31 32 32 33
50 48 46 45 43 42 41 40 39 38 38 37 36 35 34 33 32 31 30 30 29 29 28 28 28 28 28 28 28 29 29 29 30 31 31 32 33 33
52 50 49 47 46 45 44 43 42 41 40 39 38 37 36 35 34 33 32 31 31 30 30 29 29 29 29 29 30 30 31 31 31 32 32 33 33 34
52 52 51 50 49 48 47 46 44 43 41 40 39 38 37 36 35 35 34 33 33 32 31 31 30 30 30 30 31 31 31 31 32 32 32 33 33 34
53 53 52 51 51 50 49 48 47 45 44 42 41 40 39 38 37 36 35 34 33 33 33 32 31 31 31 31 31 31 31 32 32 32 33 33 33 34
53 53 52 52 52 52 51 50 49 48 46 44 43 41 40 39 38 37 36 35 34 34 33 33 32 32 32 32 32 32 33 33 33 33 33 34 34 35
Wind_Direction
331 215 204 205 204 204 204 205 208 209 210 212 215 216 218 220 220 222 222 221 222 225 228 230 233 234 236 237 239 241 242 243 245 247 248 250 252 252
330 256 218 207 204 204 205 204 206 209 213 216 217 218 220 222 222 223 223 224 226 227 229 232 234 237 239 240 242 244 245 247 248 250 251 253 254 255
315 275 238 224 214 210 211 209 211 211 215 218 218 218 219 221 223 224 226 228 229 230 232 234 237 240 241 242 244 245 247 248 249 251 252 254 255 255
312 280 247 231 223 218 214 212 212 216 219 221 221 220 221 224 226 226 227 229 232 233 234 235 237 240 242 243 245 246 248 249 250 251 253 255 256 257
306 283 256 242 233 224 219 218 218 219 221 222 221 221 224 226 227 228 229 232 235 235 236 237 239 240 242 243 244 247 248 250 251 252 254 256 257 258
296 286 269 253 243 236 230 227 225 226 226 224 224 225 228 230 229 231 232 233 234 236 238 240 241 241 242 243 244 247 249 251 253 254 255 256 257 258
285 281 274 261 250 244 239 236 234 234 232 230 231 232 232 232 232 233 235 236 237 239 240 241 242 243 244 246 247 249 251 253 254 256 256 257 258 259
279 275 270 264 257 252 248 243 240 238 236 236 236 236 235 234 234 235 237 238 239 241 243 243 245 247 248 250 250 252 254 255 257 258 258 259 260 260
275 271 268 264 260 256 252 247 245 242 240 239 239 239 239 238 238 238 239 240 241 243 246 248 249 251 252 253 254 256 255 255 256 257 258 259 261 263
271 269 266 263 261 257 254 249 246 245 243 243 242 242 242 242 241 241 241 242 243 245 248 251 252 253 254 254 256 257 257 257 257 259 260 261 263 264
268 267 264 262 259 257 255 252 250 247 245 244 243 243 243 243 242 242 243 243 244 246 249 251 252 255 255 255 256 258 259 259 259 260 262 264 266 267
265 264 263 261 258 256 254 253 251 250 248 246 245 245 245 245 244 245 247 247 247 248 250 251 253 255 256 256 258 259 261 262 263 263 265 267 269 270
264 262 261 260 258 256 254 252 251 250 249 248 248 248 248 248 247 247 248 249 251 251 251 252 254 256 256 257 258 259 261 262 264 266 268 269 271 272
262 261 260 258 257 255 254 252 251 250 250 249 249 249 250 250 250 250 252 253 254 254 254 255 256 257 258 258 259 260 261 263 265 268 269 270 272 274
260 259 258 258 256 255 253 252 251 250 250 250 250 250 250 251 252 252 253 254 255 255 256 257 258 259 260 261 262 263 265 266 268 269 271 272 274 276
258 257 256 256 255 255 253 252 251 250 249 249 249 249 250 251 252 253 253 254 255 255 256 257 259 261 262 263 264 266 267 268 270 272 274 276 277 278
256 256 255 255 254 254 253 251 250 250 249 249 248 249 249 250 251 252 254 255 256 257 258 259 261 263 264 265 267 268 270 271 273 275 276 277 279 280
255 253 253 253 253 252 251 251 250 249 248 248 248 248 248 249 251 252 254 255 257 258 260 262 263 264 265 267 269 270 272 274 275 277 278 279 281 282
254 252 251 250 250 250 250 249 249 249 248 248 247 247 248 249 250 252 253 254 256 258 259 261 263 265 267 268 270 271 273 274 276 277 279 280 282 283
253 251 250 249 248 248 248 247 247 247 247 247 247 248 248 249 250 251 252 253 255 257 259 261 263 265 267 269 270 272 274 275 277 278 279 280 282 283
252 251 249 248 246 246 246 246 246 246 246 246 247 248 248 249 250 251 252 254 255 256 259 261 263 265 267 269 270 272 274 276 277 279 280 281 282 284
250 249 248 246 245 244 244 244 244 245 245 245 246 247 248 249 250 251 252 254 256 257 259 260 262 265 267 269 271 272 274 276 278 280 281 282 283 285
248 247 245 245 244 243 243 242 243 243 243 244 245 246 247 248 249 250 252 253 256 258 259 261 262 264 267 269 271 272 274 277 278 280 281 282 284 286
Height
5789 5788 5789 5789 5790 5791 5793 5795 5798 5800 5803 5806 5809 5812 5815 5818 5821 5825 5828 5831 5834 5838 5840 5843 5846 5848 5850 5852 5854 5856 5859 5861 5862 5864 5866 5868 5869 5870
5789 5789 5789 5789 5789 5790 5792 5793 5796 5798 5801 5803 5806 5809 5811 5814 5817 5820 5823 5826 5829 5832 5835 5838 5841 5843 5845 5847 5849 5851 5853 5855 5857 5859 5860 5862 5863 5864
5790 5789 5789 5789 5789 5790 5791 5792 5794 5796 5798 5800 5802 5805 5808 5810 5813 5816 5819 5822 5824 5827 5830 5832 5835 5837 5839 5841 5843 5845 5847 5849 5851 5852 5854 5855 5857 5858
5789 5789 5788 5788 5789 5789 5790 5791 5792 5794 5796 5797 5799 5801 5804 5806 5809 5811 5814 5816 5819 5821 5824 5826 5829 5831 5833 5835 5837 5838 5840 5842 5844 5845 5847 5848 5850 5851
5789 5788 5788 5788 5788 5788 5789 5789 5791 5792 5793 5794 5796 5798 5800 5802 5804 5806 5809 5811 5813 5815 5818 5820 5822 5824 5826 5828 5830 5832 5833 5835 5837 5838 5840 5841 5842 5843
5788 5787 5787 5786 5786 5787 5787 5787 5788 5789 5790 5791 5793 5794 5796 5797 5799 5801 5803 5805 5807 5809 5811 5813 5815 5817 5819 5821 5823 5825 5827 5828 5829 5831 5832 5833 5834 5835
5786 5786 5785 5785 5784 5784 5785 5785 5786 5786 5787 5788 5789 5791 5792 5793 5795 5796 5798 5800 5801 5803 5805 5807 5809 5811 5812 5814 5816 5818 5819 5820 5822 5823 5824 5825 5826 5827
5783 5783 5782 5782 5782 5782 5781 5782 5782 5783 5784 5785 5786 5786 5788 5789 5790 5791 5793 5794 5796 5798 5799 5801 5802 5804 5805 5807 5808 5810 5811 5812 5813 5814 5815 5816 5817 5818
5779 5779 5779 5778 5778 5778 5778 5778 5778 5779 5780 5780 5781 5782 5783 5784 5785 5786 5787 5789 5790 5791 5793 5794 5795 5797 5798 5799 5800 5802 5803 5804 5805 5806 5807 5808 5809 5809
5774 5774 5774 5773 5773 5773 5774 5774 5774 5774 5775 5776 5776 5777 5778 5779 5780 5781 5782 5783 5784 5785 5786 5788 5788 5789 5790 5791 5793 5794 5795 5796 5797 5798 5799 5799 5800 5800
5768 5768 5768 5768 5768 5768 5768 5768 5769 5769 5769 5770 5771 5771 5772 5773 5774 5775 5776 5777 5778 5779 5780 5781 5782 5783 5783 5784 5786 5787 5788 5788 5789 5790 5791 5791 5791 5791
5761 5761 5761 5761 5762 5762 5762 5762 5763 5763 5764 5764 5765 5766 5767 5767 5768 5769 5770 5771 5772 5773 5774 5775 5776 5776 5777 5778 5779 5779 5780 5781 5781 5782 5782 5783 5783 5782
5752 5752 5753 5753 5754 5754 5755 5755 5756 5757 5757 5758 5759 5759 5760 5761 5762 5763 5764 5765 5765 5766 5767 5768 5769 5769 5770 5771 5771 5772 5773 5773 5774 5774 5774 5774 5774 5773
5742 5743 5743 5744 5745 5745 5746 5747 5748 5749 5750 5751 5752 5753 5753 5754 5755 5756 5757 5758 5758 5759 5760 5761 5761 5762 5763 5763 5764 5765 5765 5765 5766 5766 5766 5766 5765 5764
5731 5732 5733 5733 5734 5736 5737 5738 5739 5740 5741 5743 5744 5745 5746 5747 5748 5749 5750 5750 5751 5752 5752 5753 5754 5754 5755 5756 5756 5757 5757 5757 5757 5757 5757 5757 5756 5756
5718 5719 5720 5722 5723 5725 5726 5728 5729 5731 5732 5734 5735 5736 5738 5739 5740 5741 5742 5743 5744 5744 5745 5746 5746 5747 5747 5748 5748 5748 5749 5749 5749 5748 5748 5747 5747 5746
5703 5705 5707 5710 5711 5713 5715 5717 5718 5720 5722 5724 5725 5727 5729 5730 5732 5733 5734 5735 5736 5736 5737 5738 5738 5739 5739 5740 5740 5740 5740 5740 5740 5739 5739 5738 5737 5736
5687 5690 5693 5696 5698 5700 5702 5705 5707 5709 5711 5713 5715 5717 5719 5721 5722 5724 5725 5726 5727 5728 5729 5729 5730 5731 5731 5731 5732 5732 5731 5731 5730 5730 5729 5728 5727 5726
5671 5675 5678 5682 5684 5687 5689 5692 5695 5697 5699 5702 5704 5706 5708 5710 5712 5714 5715 5717 5718 5719 5720 5721 5721 5722 5722 5723 5723 5722 5722 5722 5721 5720 5719 5718 5717 5716
5654 5658 5662 5666 5669 5672 5675 5678 5681 5684 5687 5690 5692 5695 5697 5699 5701 5703 5705 5707 5708 5710 5711 5712 5712 5713 5713 5713 5713 5713 5712 5712 5712 5711 5710 5709 5707 5706
5636 5640 5644 5648 5652 5656 5660 5663 5667 5670 5674 5677 5680 5683 5686 5688 5690 5693 5695 5696 5698 5699 5701 5702 5702 5703 5703 5703 5704 5703 5703 5702 5701 5701 5700 5699 5697 5695
5616 5621 5625 5630 5634 5639 5644 5648 5652 5656 5660 5664 5667 5670 5673 5676 5679 5681 5683 5685 5687 5689 5690 5691 5692 5693 5693 5693 5693 5693 5693 5692 5691 5690 5689 5688 5686 5685
5596 5601 5606 5611 5616 5621 5626 5631 5636 5641 5645 5650 5654 5657 5660 5664 5666 5669 5672 5674 5676 5677 5679 5680 5681 5682 5683 5683 5683 5683 5682 5682 5681 5680 5679 5677 5676 5674